This is the latest recevied weather packets stored in our database for station/object K7YVO. If no packets are shown the sender has not sent any weather packets the latest 10 day(s).
| Time | Temp. | Humidity | Pressure | Rain* | Wind** | Luminosity | Snow |
|---|---|---|---|---|---|---|---|
| 1777476442 | 7.78° C | 78% | 1026.4 hPa | 0 mm | - | 32 W/m² | - |
| 1777476138 | 7.78° C | 78% | 1026.3 hPa | 0 mm | - | 31 W/m² | - |
| 1777475834 | 7.22° C | 79% | 1026.4 hPa | 0 mm | - | 31 W/m² | - |
| 1777475530 | 7.22° C | 80% | 1026.4 hPa | 0 mm | - | 30 W/m² | - |
| 1777475227 | 6.67° C | 81% | 1026.4 hPa | 0 mm | - | 29 W/m² | - |
| 1777474922 | 6.67° C | 82% | 1026.3 hPa | 0 mm | - | 29 W/m² | - |
| 1777474618 | 6.67° C | 82% | 1026.5 hPa | 0 mm | - | 28 W/m² | - |
| 1777474315 | 6.11° C | 84% | 1026.4 hPa | 0 mm | - | 27 W/m² | - |
| 1777474011 | 6.11° C | 85% | 1026.4 hPa | 0 mm | - | 27 W/m² | - |
| 1777473710 | 5.56° C | 88% | 1026.5 hPa | 0 mm | - | 26 W/m² | - |
| 1777473405 | 5.56° C | 91% | 1026.5 hPa | 0 mm | - | 26 W/m² | - |
| 1777473101 | 5° C | 93% | 1026.4 hPa | 0 mm | - | 25 W/m² | - |
| 1777472798 | 5° C | 94% | 1026.4 hPa | 0 mm | - | 24 W/m² | - |
| 1777472495 | 5° C | 94% | 1026.4 hPa | 0 mm | - | 24 W/m² | - |
| 1777472192 | 5° C | 94% | 1026.4 hPa | 0 mm | - | 23 W/m² | - |
| 1777471887 | 4.44° C | 94% | 1026.1 hPa | 0 mm | - | 22 W/m² | - |
| 1777471584 | 4.44° C | 94% | 1026.3 hPa | 0 mm | - | 21 W/m² | - |
| 1777471281 | 4.44° C | 94% | 1026 hPa | 0 mm | - | 20 W/m² | - |
| 1777470977 | 4.44° C | 93% | 1026.3 hPa | 0 mm | - | 19 W/m² | - |
| 1777470675 | 4.44° C | 94% | 1026.3 hPa | 0 mm | - | 18 W/m² | - |
| 1777470370 | 3.89° C | 95% | 1026.1 hPa | 0 mm | - | 16 W/m² | - |
| 1777470068 | 3.89° C | 96% | 1026.1 hPa | 0 mm | - | 15 W/m² | - |
| 1777469763 | 3.89° C | 95% | 1026.1 hPa | 0 mm | - | 13 W/m² | - |
| 1777469459 | 3.33° C | 95% | 1026.1 hPa | 0 mm | - | 11 W/m² | - |
| 1777469154 | 3.33° C | 95% | 1026.1 hPa | 0 mm | - | 10 W/m² | - |
* Rain latest hour (hover to see other rain measurements)
** Current wind speed in m/s (hover to see current wind gust speed)